Location: Heisede
(52.2582°N, 9.8523°E)
Time: 01:06:52
(UTC+00:00)

Meteor 1-23 Rocket - Pass Details

Date: 13 January 2026
Orbit: 840 x 882 km, 81.3° (Epoch: 18 February)

Event Time Altitude Azimuth Distance (km) Brightness Sun altitude
Exits shadow 04:25:50 59° 340° (NNW) 974 4.3 -26.4°
Maximum altitude 04:26:58 85° 259° (W) 852 4.0 -26.2°
Drops below altitude 10° 04:32:32 10° 172° (S) 2,455 6.7 -25.4°
Sets 04:34:56 0° 172° (S) 3,388 7.5 -25.0°
